{"data":{"norad_id":66801,"epoch":"2026-09-20T22:16:01.151904Z","epoch_age_seconds":49460,"freshness":"FRESH","line1":"1 66801U 25278L   26263.92779111  .00011409  00000+0  42336-3 0  9996","line2":"2 66801  43.0025  92.1622 0001116 323.4166  36.6609 15.27589101 45067","mean_motion":15.27589101,"eccentricity":0.0001116,"inclination_deg":43.0025,"raan_deg":92.1622,"arg_perigee_deg":323.4166,"mean_anomaly_deg":36.6609,"bstar":0.00042336,"rev_number":4506,"period_min":94.266187095557,"perigee_km":482.25613917984,"apogee_km":483.78754983393,"semimajor_km":6861.1588445069,"source":"CELESTRAK","updated_at":"2026-09-21T09:00:36.015382Z"}}